Location: *
(49.4547°N, 7.9131°E)
Time: 09:56:45
(UTC+00:00)

Cosmos 2333 Rocket - Pass Details

Date: 22 September 2019
Orbit: 840 x 862 km, 70.8° (Epoch: 14 October)

Event Time Altitude Azimuth Distance (km) Brightness Sun altitude
Rises 18:42:16 0° 323° (NW) 3,426 6.3 -12.9°
Reaches altitude 10° 18:45:02 10° 312° (NW) 2,489 5.7 -13.3°
Maximum altitude 18:49:46 28° 256° (WSW) 1,570 4.3 -14.0°
Drops below altitude 10° 18:54:30 10° 200° (SSW) 2,486 4.7 -14.8°
Sets 18:57:16 0° 189° (S) 3,420 5.3 -15.2°
